Theta_e
312 312 313 314 314 314 315 315 314 314 314 314 314 314 314 316 315 304 301 309 311 319 317 306 303 306 307 306 307 303 294 294 294 294 297 301 300 303 313 311 314 318 314 318 325
314 314 314 313 313 314 314 315 315 314 314 314 314 314 314 315 304 297 309 316 316 317 305 304 301 304 295 302 304 299 292 296 299 299 299 302 302 302 305 310 312 313 316 323 325
315 316 316 316 315 314 314 314 315 315 314 314 313 313 314 311 297 298 314 314 315 310 307 306 304 301 295 300 299 299 296 300 300 302 303 303 301 304 303 300 306 308 313 321 323
316 316 315 315 315 316 315 315 315 315 314 314 313 313 313 301 281 299 313 312 312 305 304 302 298 292 292 292 299 295 300 301 304 305 304 302 303 301 303 304 309 313 316 319 321
315 315 315 315 314 315 315 315 315 315 314 314 313 313 303 290 291 300 309 306 301 301 298 297 295 293 288 292 294 292 297 299 300 300 301 306 304 302 302 305 308 310 316 317 321
315 315 315 315 314 314 315 315 315 315 314 313 313 311 296 284 300 300 300 300 298 299 297 296 296 298 293 293 292 295 296 295 296 297 298 297 301 304 304 307 306 308 313 316 320
315 314 314 314 314 314 314 315 315 314 313 313 313 305 294 289 301 299 300 299 298 297 295 297 298 295 295 292 296 296 290 291 292 294 295 303 296 298 305 307 307 308 314 314 319
313 313 314 313 314 314 314 314 314 313 312 313 311 300 287 300 301 299 300 298 299 299 299 300 300 297 294 296 293 289 287 282 289 292 295 299 284 295 302 305 306 309 312 315 314
313 312 313 313 314 313 313 313 313 312 312 311 298 294 287 301 294 297 298 296 297 298 300 303 297 293 293 288 281 283 275 280 284 291 291 295 289 296 299 305 305 310 311 311 313
313 313 313 313 313 313 312 311 309 306 301 303 300 284 289 288 293 297 298 298 295 296 294 293 291 285 285 282 268 274 277 281 281 286 288 286 286 292 296 299 300 303 308 312 310
314 313 313 313 312 310 304 291 287 286 291 286 287 287 289 293 298 295 297 295 293 289 282 287 281 277 279 283 284 283 282 280 283 287 286 285 286 288 293 294 295 298 302 303 311
314 313 313 312 308 307 297 291 290 290 282 291 292 291 293 294 290 291 297 289 287 282 284 281 278 281 284 284 283 282 280 280 283 286 285 284 284 289 292 292 294 295 299 302 305
313 313 313 310 307 300 296 294 300 295 283 287 290 289 291 293 288 288 293 289 284 282 282 279 280 285 284 282 281 280 277 278 278 283 285 284 281 283 289 292 294 295 297 300 302
314 313 312 308 298 295 292 298 298 291 273 280 283 288 291 290 284 293 293 289 285 281 282 280 284 283 282 280 281 276 282 281 280 278 274 282 272 281 284 288 291 293 294 298 301
314 313 309 306 294 293 296 298 294 285 265 279 283 292 289 285 286 286 293 290 283 282 282 279 280 281 280 281 283 279 283 282 281 279 279 278 276 279 284 285 289 293 295 298 301
313 310 307 299 295 295 297 290 287 273 265 278 282 282 283 284 285 288 286 289 287 283 283 282 285 284 283 284 284 285 282 282 281 276 272 276 276 277 280 284 288 292 295 298 300
311 308 302 299 290 296 293 285 272 267 276 272 278 281 281 281 282 282 281 280 279 274 273 280 280 282 285 281 283 282 278 268 263 269 269 279 275 279 286 288 289 290 294 298 300
307 302 298 296 295 294 287 277 264 265 267 279 280 280 277 280 279 279 279 276 280 280 276 272 269 279 285 282 280 279 277 269 262 268 271 279 271 279 287 290 293 295 295 297 299
303 293 292 293 295 290 281 266 268 269 279 274 278 272 274 278 275 277 274 274 281 283 271 273 273 281 282 283 282 279 276 281 276 276 273 271 277 285 289 290 291 293 294 296 298
291 289 289 293 292 285 275 273 270 280 281 277 271 274 267 271 269 270 272 278 280 285 284 278 273 280 281 283 284 282 284 276 272 269 267 270 273 278 284 286 288 288 290 295 298
291 284 290 292 289 280 270 267 276 282 283 279 269 272 275 272 272 272 268 278 283 281 284 279 278 276 280 278 274 278 279 279 278 274 272 271 275 287 284 285 285 286 289 294 299
289 277 291 290 277 266 270 271 283 281 282 282 277 276 274 276 273 273 268 274 283 280 277 281 279 271 275 281 281 282 279 281 275 272 276 275 276 289 289 288 287 285 291 296 295
286 282 290 288 272 270 275 278 281 281 281 281 279 280 278 277 268 273 268 280 282 278 274 281 274 266 269 275 281 279 280 281 281 281 275 274 276 289 290 290 290 285 288 293 293
286 277 280 281 280 276 273 272 272 282 281 282 281 281 276 275 278 268 269 280 283 277 286 286 276 271 267 272 276 275 277 278 278 274 275 276 278 283 285 288 287 286 287 290 290
282 279 283 278 280 277 277 274 269 274 281 281 280 279 277 271 274 269 271 278 281 284 283 281 271 271 274 276 276 276 275 277 277 278 275 278 278 282 287 288 290 291 286 288 288
282 280 281 274 281 279 279 275 275 275 278 276 277 279 279 271 275 270 277 277 278 279 278 278 267 270 270 273 275 275 277 277 279 280 279 279 280 287 287 290 292 292 290 286 287
286 286 284 282 280 279 278 278 278 279 280 281 280 279 278 280 281 280 280 280 280 278 277 276 273 265 263 270 269 264 274 278 278 280 280 277 282 285 284 287 291 292 289 291 288
Wind_Speed
4 5 6 7 8 9 10 11 13 14 16 18 19 20 21 20 12 6 8 5 10 15 10 6 7 7 2 3 3 3 2 10 6 6 7 2 4 2 0 3 3 4 1 2 17
3 4 6 7 7 8 10 11 13 14 15 16 18 20 21 18 3 7 7 14 15 16 5 8 9 8 3 2 2 4 4 6 6 6 5 9 8 7 4 5 4 2 1 7 18
5 5 6 7 7 8 8 9 11 12 14 15 17 19 22 8 2 4 14 16 17 13 3 2 4 3 3 3 2 3 5 3 2 6 7 11 5 6 7 7 6 6 4 13 16
5 6 6 7 8 9 9 9 10 11 12 14 16 18 17 2 1 3 14 16 13 9 5 5 6 5 4 4 6 6 4 5 6 8 8 7 5 5 11 12 7 8 4 14 18
7 7 7 8 8 9 10 10 11 12 12 13 14 16 5 4 0 5 12 11 6 6 5 4 5 3 4 4 7 4 6 10 13 15 14 10 15 12 11 7 10 7 6 15 19
7 8 8 8 8 9 9 10 11 11 12 13 13 11 3 3 3 7 9 8 5 4 5 5 2 3 3 3 1 5 7 10 7 11 12 17 20 7 3 8 9 9 10 16 23
8 6 7 7 8 9 8 10 11 11 11 11 10 3 2 1 3 6 7 4 3 1 3 2 3 3 4 6 3 7 12 12 7 7 8 7 30 30 10 10 13 15 11 16 20
8 7 7 8 8 8 9 10 11 11 11 8 6 3 2 4 5 5 7 6 5 3 1 4 1 2 3 4 7 6 3 4 5 11 6 8 39 7 4 12 16 16 13 15 19
8 8 7 7 7 8 8 11 12 12 8 3 3 3 3 6 6 7 2 5 8 4 3 3 1 3 4 3 5 5 5 6 7 5 9 9 24 8 10 10 14 10 10 9 13
8 6 5 5 6 7 9 10 5 3 3 2 1 2 5 6 5 7 4 3 3 6 6 7 5 3 4 2 4 6 8 8 12 5 20 23 32 16 12 14 9 8 10 12 13
7 5 3 2 4 8 4 4 5 4 7 1 1 1 3 9 2 5 4 6 5 6 4 4 2 6 7 7 8 9 13 18 15 14 17 22 29 21 17 11 17 11 14 9 14
6 5 3 2 4 4 4 5 1 2 2 2 3 3 3 1 3 5 6 5 5 3 5 4 6 4 3 6 8 8 11 19 17 12 13 18 28 19 17 19 20 20 16 16 13
5 5 4 2 2 6 4 3 1 1 2 3 2 2 4 2 2 5 4 2 1 2 3 3 6 8 4 9 6 6 8 17 18 16 15 21 28 23 20 23 22 25 23 20 20
7 6 6 3 5 1 2 0 1 2 6 4 2 2 3 3 2 4 2 0 3 2 5 6 4 3 6 8 5 11 12 15 14 10 12 6 22 22 19 21 21 24 24 20 21
7 8 5 2 5 3 2 1 2 5 5 4 5 3 7 2 4 2 4 2 4 4 1 8 7 6 8 9 5 12 2 11 16 16 14 18 11 16 8 13 21 18 21 21 22
10 10 10 4 3 1 3 3 5 10 7 3 3 6 5 5 6 7 6 6 1 3 3 10 4 4 6 6 8 13 10 15 15 7 10 28 12 17 15 18 19 21 20 23 21
11 9 4 1 3 2 3 5 8 6 4 6 3 4 2 4 5 5 5 6 4 7 6 6 5 4 4 6 2 2 7 6 7 2 9 2 3 10 17 12 18 21 18 15 18
16 8 6 2 1 3 4 8 5 4 6 2 2 3 3 6 3 5 3 4 0 2 4 4 11 2 3 2 8 11 6 3 6 7 18 14 9 12 6 10 11 14 21 11 12
14 2 3 3 1 3 7 5 9 8 4 3 2 5 5 3 2 6 3 2 2 3 2 4 9 5 9 11 3 4 4 7 8 13 12 5 9 7 9 17 20 19 19 12 13
4 3 2 5 1 5 7 6 4 3 5 4 4 3 2 4 5 6 3 3 1 2 3 4 11 5 5 3 7 6 4 5 5 7 9 7 7 4 15 24 25 23 17 12 10
4 4 2 3 2 6 5 8 4 4 2 4 5 3 5 2 3 1 5 5 4 2 3 2 6 8 8 3 4 4 5 3 4 4 6 10 6 2 9 15 21 25 18 17 11
4 2 1 1 5 1 4 7 4 4 1 2 5 5 6 5 2 3 6 7 3 4 3 2 5 7 11 15 7 5 6 3 5 7 8 12 9 4 4 12 15 18 17 6 9
5 3 2 2 4 3 2 2 2 4 4 5 5 5 4 4 0 5 4 5 5 5 4 2 3 7 12 6 2 2 5 11 14 6 10 11 8 15 14 18 16 14 12 5 7
5 3 3 4 1 7 6 3 3 3 3 3 3 4 2 2 5 4 3 4 4 6 5 2 3 6 7 16 13 16 16 17 11 7 9 15 18 25 26 17 14 17 8 6 5
2 5 6 6 6 4 4 6 4 5 4 6 2 8 7 4 3 5 3 4 3 4 2 3 6 5 15 19 21 23 18 19 16 16 11 20 21 23 17 13 14 17 7 4 3
8 6 1 2 6 9 8 8 10 3 8 5 6 7 8 7 10 9 5 4 6 1 3 3 6 3 9 10 7 16 17 18 13 14 13 13 19 7 15 9 17 13 10 3 1
2 1 5 7 5 6 7 8 10 8 8 5 11 5 7 17 9 8 7 5 6 5 4 3 3 4 9 8 14 5 5 7 7 6 4 7 11 17 19 12 14 14 9 4 5
Wind_Direction
358 340 340 345 344 344 347 351 352 353 354 355 352 349 349 344 337 27 45 313 335 334 343 341 19 336 314 272 220 129 229 240 217 188 240 250 238 267 3 188 192 207 242 298 145
323 336 329 325 330 332 337 344 347 348 351 353 350 345 343 340 345 40 346 346 350 350 16 16 357 350 354 282 277 182 222 245 187 205 234 263 216 233 207 214 235 242 195 128 154
286 294 304 302 310 315 326 335 339 343 347 349 347 342 336 341 359 331 346 355 355 1 16 9 358 23 13 333 251 253 257 258 245 247 245 262 251 221 194 226 217 232 188 164 165
309 307 310 309 309 309 313 324 332 337 342 345 344 341 335 3 3 320 351 352 359 356 33 359 4 34 14 330 343 323 309 348 329 344 315 278 302 254 219 231 214 232 188 172 183
305 297 296 300 307 311 310 318 326 330 338 343 344 345 8 46 304 345 349 336 353 13 40 16 35 25 350 327 330 243 339 333 329 317 305 272 271 259 247 242 264 255 184 184 191
292 294 292 293 296 300 304 309 317 322 333 338 345 352 41 71 318 349 337 342 13 35 2 18 16 318 282 267 239 305 292 299 296 297 287 286 283 255 137 213 260 268 213 197 195
282 286 290 290 289 293 301 305 311 316 327 337 350 35 28 175 354 332 353 304 317 8 348 305 335 56 342 301 293 287 303 308 246 236 237 302 271 253 228 233 242 256 218 209 209
293 283 279 288 294 299 308 310 308 309 318 332 29 49 267 311 324 4 331 330 340 343 210 288 180 219 198 293 343 315 279 334 322 351 265 186 260 344 261 223 237 234 228 214 213
275 275 277 290 299 307 313 309 303 303 311 347 45 67 311 331 6 311 318 323 318 337 308 269 201 214 3 354 351 335 282 286 307 258 286 248 287 345 304 259 259 238 232 216 219
283 271 254 290 301 311 317 320 343 38 16 65 61 44 350 312 296 315 303 329 340 335 8 33 32 22 8 62 248 276 282 276 284 305 308 294 287 294 301 291 272 274 266 222 207
277 249 235 265 315 322 9 19 18 342 41 107 237 232 279 300 307 328 344 354 14 41 15 325 4 229 235 223 245 267 274 277 277 282 275 268 277 282 279 276 284 266 264 278 249
285 215 202 174 37 73 74 78 90 281 324 219 262 278 246 266 333 315 13 40 35 354 323 349 244 267 252 265 254 265 282 286 278 261 256 274 277 278 271 261 265 271 256 251 253
216 185 172 158 74 51 80 111 302 315 81 307 299 297 289 50 331 280 18 344 18 355 326 234 256 327 270 285 290 275 258 275 276 284 270 284 279 282 269 251 251 251 248 242 242
179 165 151 139 48 154 70 49 75 76 69 290 343 2 343 16 280 246 278 339 336 312 299 250 278 300 304 268 234 280 249 268 276 299 286 175 287 279 279 265 245 243 247 230 232
161 140 115 118 146 80 153 66 86 62 12 291 308 325 333 35 310 6 315 22 242 233 103 263 282 284 283 249 168 253 277 274 281 274 281 274 260 289 258 264 246 239 237 224 221
147 130 125 72 51 121 96 65 43 45 256 2 320 353 6 3 342 325 14 19 307 304 227 255 284 253 227 285 222 263 303 287 265 250 259 260 233 269 269 255 259 252 245 230 217
135 116 72 88 159 126 90 47 37 125 324 298 329 358 312 319 339 25 0 12 23 360 344 311 261 272 204 301 294 87 338 308 331 311 253 11 291 240 295 268 251 260 255 235 217
124 97 30 57 101 118 61 52 93 241 226 351 324 305 40 10 11 331 14 14 113 63 299 330 322 271 133 212 277 295 189 231 276 287 290 291 249 256 264 324 318 302 278 216 200
116 67 62 333 130 73 73 70 204 204 176 135 21 41 328 8 57 358 30 234 280 48 130 324 274 285 284 283 172 311 239 223 272 257 264 251 286 309 357 347 334 326 307 205 187
93 79 69 309 117 68 78 235 197 218 126 85 148 128 245 285 29 40 334 238 244 141 85 289 288 259 283 297 245 205 298 317 329 296 296 276 273 280 339 345 327 313 305 242 204
74 82 253 341 42 50 157 220 220 225 164 138 179 196 231 241 157 272 258 285 224 181 248 246 230 284 351 257 259 333 293 297 226 217 289 311 292 3 331 339 321 309 290 276 201
118 99 302 72 62 331 160 188 189 167 160 116 112 181 196 189 222 249 233 222 153 154 303 217 288 280 272 291 259 216 270 259 307 301 278 268 274 208 18 355 331 311 296 214 156
111 128 339 96 166 236 265 277 221 149 191 167 192 195 205 205 291 216 225 267 194 165 182 315 275 316 329 355 330 332 300 291 287 252 265 294 295 317 343 336 342 323 326 335 121
120 122 341 53 285 142 151 232 220 221 173 175 172 133 123 239 200 261 267 281 182 196 219 212 242 204 234 267 292 288 296 286 272 271 300 268 297 315 322 329 338 342 330 355 56
74 205 177 175 218 167 161 132 150 180 215 181 208 204 176 210 227 229 252 283 255 223 163 199 254 226 254 270 275 275 279 279 277 265 262 290 301 301 322 336 344 337 330 1 71
141 144 73 136 132 134 189 201 178 208 157 228 216 205 191 196 198 199 193 195 237 130 190 176 277 308 281 269 286 297 281 275 265 265 264 275 291 307 331 329 339 4 347 318 142
146 58 118 153 142 144 206 187 195 153 216 181 207 158 200 235 238 240 220 214 235 185 213 233 265 352 272 320 315 13 259 288 281 249 271 301 307 318 321 333 336 355 343 320 156